Regional Weather Roundup
Issued by NWS Upton, NY

Current Version | Previous Version | Text Only | Print | Product List | Glossary On
Versions: 1 2 3 4 5 6 7 8 9 10 11 12 13 14 15 16 17 18 19 20 21 22 23 24 25 26 27 28 29 30 31 32 33 34 35 36 37 38 39 40 41 42 43 44 45 46 47 48 49 50
000
ASUS41 KOKX 040705
RWROKX

REGIONAL WEATHER ROUNDUP
NATIONAL WEATHER SERVICE NEW YORK NY
200 AM EST WED MAR 04 2015

NOTE: "FAIR" INDICATES FEW OR NO CLOUDS BELOW 12,000 FEET WITH NO
SIGNIFICANT WEATHER AND/OR OBSTRUCTIONS TO VISIBILITY.

NYZ071-072-176-178-NJZ106-104-040800-
NEW YORK CITY METRO AREA


CITY           SKY/WX    TMP DP  RH WIND       PRES   REMARKS
CENTRAL PARK   CLOUDY    36  31  82 VRB3      29.81F
LAGUARDIA APRT CLOUDY    36  32  85 SW7       29.79F WCI  30
KENNEDY INTL   CLOUDY    36  32  85 W14       29.82S WCI  27
NEWARK/LIBERTY CLOUDY    35  33  92 SW10      29.79F WCI  27
BRNX BOT. GARD   N/A     34  32  93 W3        29.78F
TETERBORO      CLOUDY    35  31  85 SW7       29.78F WCI  29
$$

NYZ177-179-078>081-040800-
LONG ISLAND NEW YORK

CITY           SKY/WX    TMP DP  RH WIND       PRES   REMARKS
FARMINGDALE    CLOUDY    36  34  92 W16G25    29.81R WCI  26
ISLIP          CLOUDY    36  33  89 SW12      29.79F WCI  28
SHIRLEY        MIX PCPN  37  34  89 SW8       29.81F WCI  31
WESTHAMPTON    LGT RAIN  37  34  89 SW15      29.80F WCI  28
MONTAUK POINT    N/A     41  39  93 SW13G23   29.79F
$$

NYZ052-065-067-040800-
HUDSON VALLEY

CITY           SKY/WX    TMP DP  RH WIND       PRES   REMARKS
WHITE PLAINS   CLOUDY    34  32  92 VRB5      29.76F WCI  30
NEWBURGH       CLOUDY    34  32  93 W9        29.76F WCI  26
MONTGOMERY     CLOUDY    33  30  88 SW7       29.74R WCI  27
POUGHKEEPSIE   CLOUDY    35  31  85 S3        29.76S
ALBANY         CLOUDY    32  26  78 S13G25    29.68F WCI  22
$$

NJZ001-105-106-008-010-013-015-019>022-104-040800-
NEW JERSEY

CITY           SKY/WX    TMP DP  RH WIND       PRES   REMARKS
NEWARK/LIBERTY CLOUDY    35  33  92 SW10      29.79F WCI  27
TETERBORO      CLOUDY    35  31  85 SW7       29.78F WCI  29
CALDWELL       CLOUDY    33  30  88 SW7       29.78F WCI  27
MORRISTOWN     CLOUDY    37  32  81 SW8       29.78S WCI  31
SOMERVILLE     CLOUDY    34  31  88 CALM      29.79S FOG
SUSSEX         CLOUDY    33  30  88 SW8       29.75F WCI  26
ANDOVER          N/A     33  31  92 SW8       29.76F WCI  26
TRENTON        FRZ RAIN  34  32  92 W6        29.82R WCI  29
MILLVILLE      CLOUDY    38  37  97 SW6       29.81F FOG     WCI  33
ATLANTIC CITY  CLOUDY    39  37  92 SW13G21   29.83F FOG     WCI  31
WRIGHTSTOWN    CLOUDY    35  35  99 W10       29.79S FOG     WCI  27
TOMS RIVER     CLOUDY    37  37 100 CALM      29.79F
BELMAR         CLOUDY    36  30  80 W10       29.80S WCI  28
$$

PAZ047>061-062-071-040800-
EASTERN PENNSYLVANIA

CITY           SKY/WX    TMP DP  RH WIND       PRES   REMARKS
PHILADELPHIA   DRIZZLE   34  32  92 SW6       29.83F FOG     WCI  29
ALLENTOWN      SLEET     34  30  85 W8        29.79F WCI  27
SCRANTON       CLOUDY    30  27  88 SW5       29.72F FOG     WCI  25
$$

CTZ002-004>006-009-010-012-RIZ004-006-007-MAZ004-011-015-040800-
SOUTHERN NEW ENGLAND
 IN CT

CITY           SKY/WX    TMP DP  RH WIND       PRES   REMARKS
BRADLEY INTL   CLOUDY    37  32  82 SW8       29.73F WCI  31
HARTFORD       CLOUDY    36  33  89 S7        29.75F WCI  30
DANBURY        CLOUDY    33  29  85 W9        29.76F WCI  25
WTRBRY/OXFORD  CLOUDY    34  28  80 W9        29.74F WCI  26
BRIDGEPORT     CLOUDY    33  32  96 SW9       29.77F WCI  25
MERIDEN        CLOUDY    34  32  92 S8        29.76F WCI  27
NEW HAVEN      CLOUDY    34  32  92 S8        29.76F WCI  27
CHESTER        CLOUDY    36  34  93 SW9G16    29.75F WCI  29
GROTON         LGT RAIN  34  34 100 SW7       29.76F WCI  28
WILLIMANTIC    CLOUDY    35  33  92 VRB3      29.74F

 IN RI

CITY           SKY/WX    TMP DP  RH WIND       PRES   REMARKS
PROVIDENCE     LGT RAIN  40  38  93 SW15G25   29.71F WCI  32
BLOCK ISLAND   CLOUDY    41  37  87 SW21G31   29.76F
WESTERLY       LGT RAIN  37  36  96 SW12G20   29.76F FOG     WCI  29

 IN MA

CITY           SKY/WX    TMP DP  RH WIND       PRES   REMARKS
BOSTON         CLOUDY    36  34  92 W8        29.70F WCI  30
WORCESTER      CLOUDY    34  32  92 SW21G30   29.65F WCI  22
WESTFIELD      CLOUDY    35  32  88 S13       29.70F WCI  26
PROVINCETOWN   CLOUDY    37  36  93 S21G28    29.70F WCI  27
NANTUCKET      LGT RAIN  39  37  92 S16       29.79F FOG     WCI  30
$$

ANZ330-335-338-340-345-350-353-355-040800-
COASTAL MARINE OBSERVATIONS


STATION/POSITION TIME  SKY/WX   TEMP    WIND        PRES    VSBY  WAVE
                                AIR SEA DIR/SP/G                  HT/PER
                 (UTC)          (F)     (DEG/KT/KT) (MB)    (MI)  (FT/S)
NY HARB ENTRANCE 0700            37 38  250/ 16/ 19 1009.2          3/ 5
4S FIRE IS       0700               32                N/A           4/ 6
20S FIRE ISLAND  0600               36              1010.2          4/ 6
23SW MTP         0700                                 N/A           5/ 6
HUDSON CANYON    NOT AVBL
EXECUTION ROCKS  NOT AVBL
WESTERN LI SOUND NOT AVBL
CENTRAL LI SOUND NOT AVBL
EASTERN LI SOUND NOT AVBL
ROBBINS REEF     0600            35     260/ 12/ 15 1007.8
$$


>>>>>>>>>>>>>>>>>>>>>>>>>>>> KEY <<<<<<<<<<<<<<<<<<<<<<<<<<<
>                                                          <
>     SKY/WX - SKY CONDITION/PRESENT WEATHER               <
>     TMP    - TEMPERATURE IN FAHRENHEIT                   <
>     DP     - DEWPOINT IN FAHRENHEIT                      <
>     RH     - RELATIVE HUMIDITY IN PERCENT                <
>     WIND   - DIRECTION AND SPEED IN MPH                  <
>     PRES   - MEAN SEA LEVEL PRESSURE IN INCHES OF HG     <
>     WCI    - WIND CHILL INDEX                            <
>     VSB    - VISIBILITY IN MILES                         <
>     HX     - HEAT INDEX                                  <
>     TC     - TEMPERATURE IN CELSIUS                      <
>     VRB    - VARIABLE WIND DIRECTION                     <
>                                                          <
>>>>>>>>>>>>>>>>>>>>>>>>>>>> KEY <<<<<<<<<<<<<<<<<<<<<<<<<<<





USA.gov is the U.S. government's official web portal to all federal, state and local government web resources and services.